Flag Weather past 2 weeks in Kalamata, Greece

Now
48 °F

Passing clouds.


Feels Like: 48 °F
Forecast: 46 / 62 °F
Wind: No wind

Location: Kalamata Airport

Current Time: Nov 21, 2014 at 5:32:14 AM

Latest Report: Nov 21, 2014 at 4:50 AM


Visibility: N/A

Pressure: 30.07 "Hg

Humidity: 82%

Dew point: 43 °F

Location of KalamataLocation

Historic Weather in Kalamata — Graph

°F

Kalamata temperature yesterday

Maximum temperature yesterday: 68 °F (at 12:20 PM)
Minimum temperature yesterday: 48 °F (at 11:50 PM)
Average temperature yesterday: 59 °F

Past Weeks' High & Low Weather Summary

 TemperatureHumidityPressure
High75 °F (Nov 6, 11:50 AM)100% (Nov 13, 7:20 AM)30.18 "Hg (Nov 13, 7:20 AM)
Low46 °F (Nov 21, 1:50 AM)37% (Nov 20, 11:20 AM)29.80 "Hg (Nov 13, 12:50 PM)
Average62 °F80%30.00 "Hg
* Reported Nov 6 3:50 AM — Nov 21 3:50 AM, Kalamata, Weather by CustomWeather, © 2014

Note: Actual official high and low records may vary slightly from our data, if they occured in-between our weather recording intervals... More about our weather records

Advertising

Kalamata weather history for previous 24 hours

 ConditionsComfort  
Time TempWeatherWind HumidityBarometerVisibility
3:50 AM
Nov 21
46 °FPassing clouds.No wind87%30.07 "HgN/A
2:50 AM48 °FPassing clouds.7 mph82%30.07 "HgN/A
1:50 AM46 °FPassing clouds.5 mph93%30.07 "HgN/A
12:50 AM48 °FPassing clouds.5 mph87%30.07 "HgN/A
11:50 PM
Nov 20
48 °FPassing clouds.No wind87%30.09 "HgN/A
10:50 PM50 °FPassing clouds.No wind82%30.09 "HgN/A
9:50 PM52 °FPassing clouds.No wind82%30.07 "HgN/A
8:50 PM52 °FPassing clouds.No wind82%30.07 "HgN/A
7:50 PM55 °FPassing clouds.No wind72%30.07 "HgN/A
7:20 PM55 °FPassing clouds.No wind72%30.04 "HgN/A
6:50 PM55 °FPassing clouds.No wind72%30.04 "HgN/A
6:20 PM57 °FPassing clouds.No wind72%30.04 "HgN/A
5:50 PM59 °FPassing clouds.No wind68%30.04 "HgN/A
5:20 PM61 °FPassing clouds.No wind63%30.04 "HgN/A
4:50 PM63 °FPassing clouds.5 mph56%30.04 "HgN/A
3:50 PM66 °FPassing clouds.8 mph49%30.04 "HgN/A
3:20 PM68 °FPassing clouds.9 mph46%30.04 "HgN/A
2:50 PM68 °FPassing clouds.8 mph43%30.01 "HgN/A
2:20 PM68 °FPassing clouds.7 mph46%30.01 "HgN/A
1:50 PM68 °FPassing clouds.8 mph46%30.04 "HgN/A
1:20 PM68 °FPassing clouds.8 mph43%30.04 "HgN/A
12:50 PM68 °FPassing clouds.8 mph43%30.04 "HgN/A
12:20 PM68 °FPassing clouds.8 mph38%30.07 "HgN/A
11:50 AM66 °FPassing clouds.6 mph40%30.07 "HgN/A
11:20 AM66 °FSunny.7 mph37%30.07 "Hg10 mi
10:50 AM66 °FSunny.5 mph43%30.07 "Hg10 mi
10:20 AM64 °FSunny.No wind52%30.07 "Hg10 mi
9:50 AM63 °FSunny.No wind64%30.07 "Hg10 mi
9:20 AM61 °FSunny.No wind72%30.07 "Hg10 mi
8:50 AM59 °FPassing clouds.No wind77%30.07 "Hg5 mi
8:20 AM57 °FPassing clouds.No wind77%30.07 "Hg5 mi
7:50 AM52 °FPassing clouds.No wind94%30.07 "Hg5 mi
7:20 AM52 °FPassing clouds.No wind94%30.07 "Hg5 mi
6:50 AM52 °FPassing clouds.No wind94%30.04 "Hg6 mi
6:20 AM52 °FClear.No wind94%30.04 "Hg10 mi
5:50 AM52 °FClear.No wind94%30.04 "Hg10 mi
5:20 AM50 °FClear.No wind100%30.04 "Hg10 mi
Weather by CustomWeather, © 2014

See weather overviewHow to use our weather pages